Вернуться в каталог

COSMOS 1275 DEB

АктивенPO
NORAD 13022·DEBRIS·🇷🇺 Russia

Запущен Jun 4, 1981 с Plesetsk Cosmodrome

Loading…

Ближайшие Пролёты (ближайшие 24 часа)

TLE

СвежийSource: Space-Track

Эпоха: Sep 14, 2026, 06:35 UTC

1 13022U 81053EU  26257.27432106  .00000814  00000-0  36749-3 0  9997
2 13022  82.9177 190.4698 0045504  94.3344  57.0686 14.20497258298098

Отслеживайте COSMOS 1275 DEB в реальном времени с AllMySat

Download on the App Store